Location: Berlise
(49.6641°N, 4.1077°E)
Time: 03:20:38
(UTC+00:00)

Cosmos 1634 Rocket - Pass Details

Date: 27 January 2021
Orbit: 960 x 991 km, 82.9° (Epoch: 24 February)

Event Time Altitude Azimuth Distance (km) Brightness Sun altitude
Rises 04:59:23 0° 175° (S) 3,631 7.1 -23.1°
Reaches altitude 10° 05:01:53 10° 172° (S) 2,689 6.4 -22.6°
Maximum altitude 05:07:55 61° 93° (E) 1,089 4.5 -21.7°
Drops below altitude 10° 05:14:01 10° 15° (NNE) 2,719 6.5 -20.7°
Sets 05:16:34 0° 12° (NNE) 3,674 7.1 -20.3°
